TimeCST,TemperatureF,Dew PointF,Humidity,Sea Level PressureIn,VisibilityMPH,Wind Direction,Wind SpeedMPH,Gust SpeedMPH,PrecipitationIn,Events,Conditions,WindDirDegrees,DateUTC
12:15 AM,43.9,38.1,80,30.33,10.0,Calm,Calm,-,N/A,,Clear,0,2012-11-17 06:15:00
12:35 AM,43.2,37.9,82,30.33,10.0,NNE,3.5,-,N/A,,Clear,30,2012-11-17 06:35:00
12:55 AM,44.8,37.8,76,30.32,10.0,NNE,4.6,-,N/A,,Clear,30,2012-11-17 06:55:00
1:15 AM,44.6,37.6,76,30.33,10.0,NNE,3.5,-,N/A,,Clear,20,2012-11-17 07:15:00
1:35 AM,42.1,38.1,86,30.33,10.0,Calm,Calm,-,N/A,,Clear,0,2012-11-17 07:35:00
1:55 AM,41.9,38.1,86,30.33,10.0,Calm,Calm,-,N/A,,Clear,0,2012-11-17 07:55:00
2:15 AM,41.5,38.1,88,30.33,10.0,Calm,Calm,-,N/A,,Clear,0,2012-11-17 08:15:00
2:35 AM,40.8,37.4,88,30.33,10.0,Calm,Calm,-,N/A,,Clear,0,2012-11-17 08:35:00
2:55 AM,41.0,37.4,87,30.32,10.0,Calm,Calm,-,N/A,,Clear,0,2012-11-17 08:55:00
3:15 AM,40.6,37.4,88,30.32,10.0,Calm,Calm,-,N/A,,Clear,0,2012-11-17 09:15:00
3:35 AM,40.1,37.4,90,30.32,10.0,NNW,3.5,-,N/A,,Clear,340,2012-11-17 09:35:00
3:55 AM,39.4,37.2,92,30.32,10.0,North,3.5,-,N/A,,Clear,10,2012-11-17 09:55:00
4:15 AM,39.7,36.9,89,30.31,10.0,NNE,3.5,-,N/A,,Clear,20,2012-11-17 10:15:00
4:35 AM,39.6,37.0,91,30.31,10.0,Calm,Calm,-,N/A,,Clear,0,2012-11-17 10:35:00
4:55 AM,39.2,36.7,91,30.31,10.0,Calm,Calm,-,N/A,,Clear,0,2012-11-17 10:55:00
5:15 AM,39.6,36.3,88,30.32,10.0,Calm,Calm,-,N/A,,Clear,0,2012-11-17 11:15:00
5:35 AM,39.6,36.3,88,30.32,10.0,Calm,Calm,-,N/A,,Clear,0,2012-11-17 11:35:00
5:55 AM,40.1,36.5,87,30.33,10.0,NNE,4.6,-,N/A,,Clear,30,2012-11-17 11:55:00
6:15 AM,41.2,36.9,85,30.33,10.0,NE,4.6,-,N/A,,Clear,40,2012-11-17 12:15:00
6:35 AM,40.1,36.5,87,30.34,10.0,Calm,Calm,-,N/A,,Clear,0,2012-11-17 12:35:00
6:55 AM,39.9,36.3,87,30.35,10.0,Calm,Calm,-,N/A,,Clear,0,2012-11-17 12:55:00
7:15 AM,40.8,36.7,85,30.36,10.0,Calm,Calm,-,N/A,,Clear,0,2012-11-17 13:15:00
7:35 AM,42.6,38.3,85,30.36,10.0,NNE,3.5,-,N/A,,Clear,20,2012-11-17 13:35:00
7:55 AM,44.4,39.0,81,30.36,10.0,NNE,4.6,-,N/A,,Clear,30,2012-11-17 13:55:00
8:15 AM,46.2,39.2,76,30.37,10.0,NNE,6.9,-,N/A,,Clear,30,2012-11-17 14:15:00
8:35 AM,48.6,39.7,72,30.37,10.0,NE,5.8,-,N/A,,Clear,50,2012-11-17 14:35:00
8:55 AM,50.5,39.2,65,30.37,10.0,NE,6.9,-,N/A,,Clear,50,2012-11-17 14:55:00
9:15 AM,52.5,39.6,61,30.37,10.0,ENE,6.9,-,N/A,,Clear,60,2012-11-17 15:15:00
9:35 AM,54.5,40.3,59,30.37,10.0,NE,5.8,-,N/A,,Clear,50,2012-11-17 15:35:00
9:55 AM,56.5,40.3,55,30.37,10.0,ENE,5.8,-,N/A,,Clear,70,2012-11-17 15:55:00
10:15 AM,58.8,38.8,47,30.38,10.0,East,4.6,-,N/A,,Clear,80,2012-11-17 16:15:00
10:35 AM,60.1,40.3,48,30.38,10.0,Calm,Calm,-,N/A,,Clear,0,2012-11-17 16:35:00
11:55 AM,64.9,36.7,35,30.35,10.0,ENE,5.8,-,N/A,,Clear,60,2012-11-17 17:55:00
12:15 PM,64.6,37.2,36,30.34,10.0,NE,4.6,-,N/A,,Clear,50,2012-11-17 18:15:00
12:35 PM,65.5,38.5,37,30.33,10.0,ENE,8.1,-,N/A,,Clear,60,2012-11-17 18:35:00
12:55 PM,65.5,39.2,38,30.32,10.0,NE,6.9,-,N/A,,Clear,40,2012-11-17 18:55:00
1:15 PM,66.7,38.7,36,30.31,10.0,NE,10.4,-,N/A,,Clear,40,2012-11-17 19:15:00
1:35 PM,66.4,38.3,36,30.29,10.0,NE,6.9,-,N/A,,Clear,40,2012-11-17 19:35:00
1:55 PM,67.3,38.1,34,30.29,10.0,NE,6.9,-,N/A,,Clear,40,2012-11-17 19:55:00
2:15 PM,67.3,39.0,35,30.28,10.0,ENE,9.2,-,N/A,,Clear,60,2012-11-17 20:15:00
2:35 PM,66.7,39.4,37,30.28,10.0,NE,6.9,-,N/A,,Clear,40,2012-11-17 20:35:00
2:55 PM,66.7,37.4,34,30.28,10.0,NE,5.8,-,N/A,,Clear,40,2012-11-17 20:55:00
3:15 PM,66.6,37.2,34,30.28,10.0,NNE,9.2,-,N/A,,Clear,20,2012-11-17 21:15:00
3:35 PM,66.6,37.0,34,30.28,10.0,NNE,6.9,-,N/A,,Clear,30,2012-11-17 21:35:00
3:55 PM,66.2,35.6,32,30.29,10.0,NNE,6.9,-,N/A,,Clear,20,2012-11-17 21:55:00
4:15 PM,65.8,36.5,34,30.28,10.0,NE,6.9,-,N/A,,Clear,40,2012-11-17 22:15:00
4:35 PM,64.8,37.0,36,30.28,10.0,North,5.8,-,N/A,,Clear,10,2012-11-17 22:35:00
4:55 PM,62.8,37.6,39,30.28,10.0,North,5.8,-,N/A,,Clear,10,2012-11-17 22:55:00
5:15 PM,61.2,36.3,40,30.28,10.0,NE,4.6,-,N/A,,Clear,40,2012-11-17 23:15:00
5:35 PM,60.1,35.8,40,30.28,10.0,NE,3.5,-,N/A,,Clear,40,2012-11-17 23:35:00
5:55 PM,59.0,36.1,42,30.29,10.0,NNE,4.6,-,N/A,,Clear,30,2012-11-17 23:55:00
6:15 PM,53.6,38.8,57,30.29,10.0,Calm,Calm,-,N/A,,Clear,0,2012-11-18 00:15:00
6:35 PM,54.5,39.7,57,30.29,10.0,Calm,Calm,-,N/A,,Clear,0,2012-11-18 00:35:00
6:55 PM,54.0,40.1,59,30.30,10.0,Calm,Calm,-,N/A,,Clear,0,2012-11-18 00:55:00
7:15 PM,52.2,40.8,65,30.30,10.0,Calm,Calm,-,N/A,,Clear,0,2012-11-18 01:15:00
7:35 PM,52.0,41.5,68,30.31,10.0,Calm,Calm,-,N/A,,Clear,0,2012-11-18 01:35:00
7:55 PM,50.4,41.9,73,30.31,10.0,Calm,Calm,-,N/A,,Clear,0,2012-11-18 01:55:00
8:15 PM,50.0,41.4,72,30.31,10.0,Calm,Calm,-,N/A,,Clear,0,2012-11-18 02:15:00
8:35 PM,50.0,41.5,73,30.31,10.0,Calm,Calm,-,N/A,,Clear,0,2012-11-18 02:35:00
8:55 PM,47.1,41.2,80,30.32,10.0,Calm,Calm,-,N/A,,Clear,0,2012-11-18 02:55:00
9:15 PM,46.6,40.1,78,30.33,10.0,Calm,Calm,-,N/A,,Clear,0,2012-11-18 03:15:00
9:35 PM,47.5,39.7,75,30.33,10.0,Calm,Calm,-,N/A,,Clear,0,2012-11-18 03:35:00
9:55 PM,47.7,38.1,70,30.33,10.0,Calm,Calm,-,N/A,,Clear,0,2012-11-18 03:55:00
10:15 PM,45.5,40.1,81,30.33,10.0,Calm,Calm,-,N/A,,Clear,0,2012-11-18 04:15:00
10:35 PM,45.1,39.6,81,30.32,10.0,Calm,Calm,-,N/A,,Clear,0,2012-11-18 04:35:00
10:55 PM,46.4,37.4,71,30.32,10.0,East,3.5,-,N/A,,Clear,80,2012-11-18 04:55:00
11:15 PM,44.8,37.6,76,30.32,10.0,ENE,5.8,-,N/A,,Clear,70,2012-11-18 05:15:00
11:35 PM,43.5,37.4,79,30.32,10.0,ENE,5.8,-,N/A,,Clear,70,2012-11-18 05:35:00
11:55 PM,45.1,38.3,77,30.32,10.0,ENE,6.9,-,N/A,,Clear,70,2012-11-18 05:55:00